This is the latest recevied weather packets stored in our database for station/object W4ZHA. If no packets are shown the sender has not sent any weather packets the latest 10 day(s).
| Time | Temp. | Humidity | Pressure | Rain* | Wind** | Luminosity | Snow |
|---|---|---|---|---|---|---|---|
| 1787789219 | 26.11° C | 67% | 1014.8 hPa | 0 mm | - | 0 W/m² | - |
| 1787788914 | 26.11° C | 65% | 1015.1 hPa | 0 mm | - | 0 W/m² | - |
| 1787788612 | 26.11° C | 65% | 1014.8 hPa | 0 mm | - | 0 W/m² | - |
| 1787788307 | 26.67° C | 65% | 1014.8 hPa | 0 mm | - | 2 W/m² | - |
| 1787788002 | 26.67° C | 65% | 1014.4 hPa | 0 mm | - | 4 W/m² | - |
| 1787787697 | 26.67° C | 65% | 1014.4 hPa | 0 mm | - | 5 W/m² | - |
| 1787787395 | 27.22° C | 64% | 1014.4 hPa | 0 mm | - | 5 W/m² | - |
| 1787787090 | 27.22° C | 63% | 1014.8 hPa | 0 mm | - | 5 W/m² | - |
| 1787786790 | 27.78° C | 63% | 1014.8 hPa | 0 mm | - | 7 W/m² | - |
| 1787786485 | 27.78° C | 63% | 1014.8 hPa | 0 mm | - | 11 W/m² | - |
| 1787786180 | 27.78° C | 63% | 1014.8 hPa | 0 mm | - | 13 W/m² | - |
| 1787785876 | 27.78° C | 63% | 1014.8 hPa | 0 mm | - | 17 W/m² | - |
| 1787785571 | 28.33° C | 62% | 1014.8 hPa | 0 mm | - | 17 W/m² | - |
| 1787785266 | 28.33° C | 62% | 1015.1 hPa | 0 mm | - | 19 W/m² | - |
| 1787784965 | 28.33° C | 62% | 1015.1 hPa | 0 mm | - | 22 W/m² | - |
| 1787784665 | 27.78° C | 64% | 1015.1 hPa | 0 mm | - | 23 W/m² | - |
| 1787784363 | 28.33° C | 65% | 1014.8 hPa | 0 mm | - | 27 W/m² | - |
| 1787784058 | 28.33° C | 63% | 1015.1 hPa | 0 mm | - | 32 W/m² | - |
| 1787783754 | 28.89° C | 63% | 1015.1 hPa | 0 mm | - | 35 W/m² | - |
| 1787783449 | 28.89° C | 63% | 1015.1 hPa | 0 mm | - | 38 W/m² | - |
| 1787783144 | 28.89° C | 60% | 1015.5 hPa | 0 mm | - | 42 W/m² | - |
| 1787782839 | 29.44° C | 61% | 1015.5 hPa | 0 mm | - | 45 W/m² | - |
| 1787782533 | 29.44° C | 61% | 1015.5 hPa | 0 mm | - | 47 W/m² | - |
| 1787782228 | 29.44° C | 60% | 1015.5 hPa | 0 mm | - | 48 W/m² | - |
| 1787781925 | 29.44° C | 60% | 1015.5 hPa | 0 mm | - | 52 W/m² | - |
* Rain latest hour (hover to see other rain measurements)
** Current wind speed in m/s (hover to see current wind gust speed)